Hanford, CA

2:52 PM PDT on March 25, 2017 (GMT -0700)
Hanford Municipal

Weather History for KHJO - May, 2013

Change the Weather History Date:

Friday, May 3, 2013

  Actual Average Record
Temperature  
Mean Temperature 74 °F 66 °F  
Max Temperature 94 °F 80 °F 99 °F (2004)
Min Temperature 54 °F 51 °F 47 °F (2007)
Degree Days  
Heating Degree Days 0    
Month to date heating degree days 0  
Since 1 July heating degree days 2318  
Cooling Degree Days 9    
Month to date cooling degree days 21  
Year to date cooling degree days 85  
Growing Degree Days 24 (Base 50)    
Moisture  
Dew Point 42 °F    
Average Humidity 37    
Maximum Humidity 61    
Minimum Humidity 12    
Precipitation  
Precipitation 0.00 in 0.02 in 0.38 in (2003)
Month to date precipitation 0.00 0.06  
Year to date precipitation 1.42 6.25  
Since 1 July precipitation 3.42  
Snow  
Snow 0.00 in - - ()
Month to date snowfall 0.0  
Since 1 July snowfall 0.0  
Snow Depth 0.00 in    
Sea Level Pressure  
Sea Level Pressure 29.91 in    
Wind  
Wind Speed 5 mph (NNW)    
Max Wind Speed 12 mph    
Max Gust Speed 17 mph    
Visibility 9 miles    
Events      
T = Trace of Precipitation, MM = Missing Value Source: NWS Daily Summary

Daily Weather History Graph

Daily Weather History Graph

Search for Another Location

Airport or City:

Trip Planner

Search our weather history database for the weather conditions in past years. The results will help you decide how hot, cold, wet, or windy it might be!

Date:

Astronomy

May. 03, 2013 Rise Set
Actual Time 6:02 AM PDT 7:48 PM PDT
Civil Twilight 5:35 AM PDT 8:16 PM PDT
Nautical Twilight 5:01 AM PDT 8:49 PM PDT
Astronomical Twilight 4:26 AM PDT 9:25 PM PDT
Moon 2:19 AM PDT (5/3) 1:58 PM PDT (5/3)
Length of Visible Light 14h 41m
Length of Day
13h 45m
Waning Crescent, 36% of the Moon is Illuminated
May 3
Waning Crescent
May 9
New
May 17
First Quarter
May 24
Full
May 31
Last Quarter

Hourly Weather History & Observations

Time (PDT) Temp. Dew Point Humidity Pressure Visibility Wind Dir Wind Speed Gust Speed Precip Events Conditions
12:53 AM 69.1 °F 46.0 °F 44% 30.05 in 10.0 mi NW 6.9 mph - N/A   Clear
1:53 AM 70.0 °F 42.1 °F 36% 30.04 in 10.0 mi NNW 8.1 mph - N/A   Clear
2:53 AM 62.1 °F 44.1 °F 52% 30.03 in 10.0 mi NNW 3.5 mph - N/A   Clear
3:53 AM 63.0 °F 42.1 °F 46% 30.02 in 10.0 mi NNE 3.5 mph - N/A   Clear
4:53 AM 55.0 °F 43.0 °F 64% 30.02 in 9.0 mi Calm Calm - N/A   Clear
5:53 AM 60.1 °F 43.0 °F 53% 30.01 in 10.0 mi NW 5.8 mph - N/A   Clear
6:53 AM 60.1 °F 44.1 °F 55% 30.01 in 9.0 mi Calm Calm - N/A   Clear
7:53 AM 64.9 °F 46.0 °F 50% 30.01 in 7.0 mi Calm Calm - N/A   Clear
8:53 AM 68.0 °F 48.9 °F 50% 30.00 in 7.0 mi Calm Calm - N/A   Clear
9:53 AM 73.9 °F 48.0 °F 40% 29.99 in 6.0 mi Variable 3.5 mph - N/A   Haze
10:53 AM 81.0 °F 48.0 °F 31% 29.96 in 6.0 mi Variable 4.6 mph - N/A   Haze
11:53 AM 84.9 °F 41.0 °F 21% 29.94 in 8.0 mi WNW 6.9 mph - N/A   Clear
12:53 PM 88.0 °F 42.1 °F 20% 29.92 in 8.0 mi NW 6.9 mph - N/A   Clear
2:53 PM 93.0 °F 42.1 °F 17% 29.86 in 9.0 mi North 6.9 mph - N/A   Clear
3:53 PM 93.0 °F 37.0 °F 14% 29.83 in 10.0 mi North 8.1 mph - N/A   Clear
4:53 PM 93.9 °F 36.0 °F 13% 29.80 in 10.0 mi Variable 5.8 mph - N/A   Clear
5:53 PM 93.0 °F 34.0 °F 12% 29.78 in 10.0 mi North 8.1 mph - N/A   Clear
6:53 PM 91.0 °F 36.0 °F 14% 29.77 in 10.0 mi NW 9.2 mph - N/A   Clear
7:53 PM 82.9 °F 37.9 °F 20% 29.77 in 10.0 mi WNW 3.5 mph - N/A   Clear
8:53 PM 80.1 °F 39.0 °F 23% 29.78 in 10.0 mi NW 5.8 mph - N/A   Clear
9:53 PM 77.0 °F 39.9 °F 26% 29.78 in 10.0 mi NW 6.9 mph - N/A   Clear
10:53 PM 77.0 °F 43.0 °F 30% 29.77 in 10.0 mi WNW 9.2 mph - N/A   Clear
11:53 PM 72.0 °F 39.9 °F 31% 29.77 in 10.0 mi NNW 8.1 mph - N/A   Clear